[[{"header":{"parameterUnit":"m.s-1","parameterCategory":1,"la1":30.2992,"la2":30.254,"lo1":-89.0895,"lo2":-89.0443,"dy":0.0025,"dx":0.0025,"nx":19,"ny":19,"refTime":"2026-03-21T21:00:00:Z","depth":0,"parameterNumber":2,"parameterNumberName":"U-component_of_WINDS"},"data":[0,0,0,3.0837,3.0841,3.1001,3.1002,3.1236,3.1238,0,0,0,0,0,0,0,0,0,0,0,3.0806,3.0809,3.0837,3.0841,3.1001,3.1002,3.1235,3.1238,0,0,0,0,0,0,0,0,0,0,0,3.0805,3.0808,3.0811,3.0842,3.1001,3.1002,3.1235,3.1104,0,0,0,0,0,0,0,0,0,0,3.0943,3.0932,3.0807,3.0811,3.0843,3.1001,3.1002,3.1097,3.1112,3.1175,0,3.1235,0,3.124,3.1255,3.1256,0,0,0,3.0829,3.0919,3.0947,3.0811,3.0844,3.1001,3.0925,3.1105,3.1122,3.1195,3.1238,3.1246,3.1244,3.1257,3.1258,3.1659,3.1661,0,0,3.082,3.0845,3.0935,3.0958,3.0934,3.092,3.0931,3.1115,3.1164,3.1239,3.1251,3.1248,3.1259,3.1261,3.1657,3.166,0,0,0,3.0803,3.084,3.0862,3.095,3.0976,3.0925,3.0937,3.1156,3.1161,3.1253,3.1251,3.126,3.1263,3.1654,3.1658,3.1801,0,0,0,3.0797,3.0829,3.0858,3.0875,3.0973,3.1068,3.0975,3.1148,3.1168,3.125,3.126,3.1266,3.1651,3.1656,3.1791,3.1865,0,0,0,3.079,3.0828,3.0857,3.0876,3.0946,3.1064,3.1079,3.1152,3.1167,3.1256,3.1267,3.1649,3.1655,3.1782,3.185,3.1976,0,0,0,3.0791,3.0985,3.086,3.1075,3.0945,3.1151,3.1078,3.1231,3.1325,3.1262,3.1652,3.1657,3.1779,3.1842,3.1967,3.2086,3.2137,0,0,3.1049,3.1017,3.1141,3.1034,3.1268,3.1125,3.138,3.1444,3.1431,3.1584,3.1593,3.1794,3.1849,3.1974,3.242,3.2462,0,0,0,3.1231,3.1321,3.1377,3.1466,3.1517,3.1567,3.1588,3.1611,3.1739,3.1514,3.1873,3.1905,3.1977,3.2033,3.2068,3.2127,3.1684,3.1683,3.1683,3.1634,3.1603,3.1806,3.1795,3.1882,3.1899,3.1967,3.2001,3.1948,3.2033,3.2079,3.2353,3.2419,3.2445,3.2508,3.2139,3.214,3.214,3.2141,3.2008,3.213,3.205,3.2218,3.2185,3.2327,3.2351,3.2307,3.2434,3.2317,3.2379,3.2254,3.2491,3.2544,3.2151,3.2149,3.2148,3.2147,3.2146,3.2268,3.2321,3.2343,3.2466,3.2564,3.2546,3.267,3.2636,3.2605,3.2667,3.2709,3.2707,3.2699,3.2689,3.269,3.2691,3.2692,3.2693,3.2693,3.2529,3.2549,3.2657,3.2725,3.2776,3.2838,3.2856,3.2905,3.2951,3.2916,3.2917,3.2854,3.252,3.2436,3.2708,3.2705,3.2703,3.2702,3.2701,3.292,3.2825,3.2992,3.3042,3.3117,3.3216,3.3169,3.3272,3.3308,3.337,3.3293,3.3052,3.3017,3.2989,3.2919,3.3299,3.3299,3.3299,3.3299,3.3138,3.3116,3.3277,3.336,3.3437,3.3411,3.3599,3.3614,3.3614,3.3634,3.3574,3.3479,3.3451,3.3432,3.3395,3.3329,3.3805,3.3806,3.3806,3.3376,3.3359,3.3527,3.3523,3.3578,3.3627,3.3802,3.39,3.3881,3.3826,3.3648,3.3627,3.3473,3.3425,3.3367,3.3309,3.3189,0,0]},{"header":{"parameterUnit":"m.s-1","parameterCategory":1,"la1":30.2992,"la2":30.254,"lo1":-89.0895,"lo2":-89.0443,"dy":0.0025,"dx":0.0025,"nx":19,"ny":19,"refTime":"2026-03-21T21:00:00:Z","depth":0,"parameterNumber":3,"parameterNumberName":"V-component_of_WINDS"},"data":[0,0,0,5.3735,5.374,5.4015,5.4016,5.4358,5.4361,0,0,0,0,0,0,0,0,0,0,0,5.3652,5.3654,5.3734,5.3741,5.4014,5.4016,5.4358,5.4361,0,0,0,0,0,0,0,0,0,0,0,5.3651,5.3653,5.3656,5.3742,5.4014,5.4016,5.4357,5.4152,0,0,0,0,0,0,0,0,0,0,5.3887,5.381,5.3653,5.3656,5.3744,5.4014,5.4016,5.4143,5.4165,5.4232,0,5.4293,0,5.4333,5.4384,5.4385,0,0,0,5.3742,5.3791,5.3867,5.3657,5.3746,5.4014,5.3891,5.4155,5.4181,5.4262,5.4298,5.4311,5.4338,5.4386,5.4388,5.4775,5.4776,0,0,5.3727,5.37,5.3849,5.3883,5.3844,5.3883,5.39,5.4171,5.4208,5.4299,5.4319,5.4344,5.4388,5.4391,5.4773,5.4775,0,0,0,5.3683,5.3689,5.3758,5.3869,5.3919,5.389,5.391,5.4196,5.422,5.4323,5.4348,5.439,5.4395,5.4771,5.4774,5.4836,0,0,0,5.3674,5.3663,5.3751,5.3738,5.3914,5.4062,5.3929,5.4202,5.4233,5.4346,5.4391,5.4398,5.4769,5.4772,5.483,5.4869,0,0,0,5.3634,5.3659,5.3698,5.3736,5.3853,5.4058,5.4098,5.4209,5.4249,5.4385,5.4399,5.4768,5.4772,5.4825,5.4861,5.4963,0,0,0,5.3584,5.3749,5.3699,5.3892,5.385,5.4095,5.4097,5.428,5.4405,5.4392,5.4769,5.4773,5.4823,5.4856,5.4957,5.5044,5.5078,0,0,5.3777,5.3771,5.3887,5.385,5.4097,5.4055,5.431,5.4449,5.4485,5.4675,5.4685,5.4832,5.486,5.4962,5.5277,5.5303,0,0,0,5.3939,5.4022,5.4093,5.4211,5.4322,5.4419,5.4522,5.4573,5.4736,5.4579,5.4897,5.4915,5.4975,5.5018,5.5041,5.5094,5.4792,5.4792,5.4791,5.4173,5.4211,5.4405,5.4477,5.4591,5.4695,5.479,5.4876,5.4882,5.4956,5.5013,5.5199,5.5248,5.5266,5.532,5.5062,5.5062,5.5062,5.5062,5.4458,5.4581,5.4584,5.4773,5.4812,5.497,5.5075,5.5073,5.5225,5.516,5.5215,5.5141,5.5294,5.5343,5.5067,5.5066,5.5066,5.5065,5.5065,5.4615,5.4681,5.4741,5.4915,5.5044,5.5109,5.5255,5.5285,5.5314,5.5368,5.5431,5.543,5.5432,5.5396,5.5397,5.5397,5.5398,5.5398,5.5399,5.4755,5.4821,5.4941,5.5071,5.515,5.5258,5.5362,5.544,5.5534,5.5544,5.5544,5.5541,5.5302,5.5241,5.5409,5.5407,5.5406,5.5405,5.5404,5.5029,5.4972,5.5157,5.5237,5.5391,5.5516,5.5553,5.5708,5.5776,5.5847,5.5831,5.565,5.5646,5.5628,5.5578,5.5823,5.5823,5.5823,5.5823,5.5162,5.5163,5.5359,5.5483,5.5608,5.5659,5.5865,5.5946,5.6021,5.6065,5.6034,5.597,5.595,5.5958,5.5933,5.5886,5.6205,5.6205,5.6206,5.5333,5.5347,5.5518,5.5592,5.5715,5.5818,5.6012,5.6152,5.6225,5.6222,5.61,5.6084,5.5981,5.5945,5.5939,5.59,5.5815,0,0]}]]